Overview Statistics Trail Chart Weather Telemetry Raw packets
 

This is the latest recevied weather packets stored in our database for station/object G4KVI. If no packets are shown the sender has not sent any weather packets the latest 10 day(s).

<< 64 65 66 67 68 69 70 >>
Time Temp. Humidity Pressure Rain* Wind** Luminosity Snow
1788148204 12.78° C 95% 1008.9 hPa 0 mm - 0 W/m² -
1788147904 12.78° C 95% 1009 hPa 0 mm - 0 W/m² -
1788147603 12.78° C 94% 1009 hPa 1.02 mm - 0 W/m² -
1788147303 12.78° C 94% 1009 hPa 2.03 mm - 0 W/m² -
1788147003 12.78° C 94% 1008.8 hPa 2.54 mm - 0 W/m² -
1788146703 13.33° C 94% 1008.8 hPa 3.05 mm - 0 W/m² -
1788146403 13.33° C 94% 1009 hPa 3.05 mm - 0 W/m² -
1788146103 13.33° C 94% 1008.9 hPa 3.3 mm - 0 W/m² -
1788145804 13.33° C 94% 1008.8 hPa 3.56 mm - 0 W/m² -
1788145503 13.33° C 94% 1008.7 hPa 4.06 mm - 0 W/m² -
1788145203 13.33° C 94% 1008.5 hPa 4.32 mm - 0 W/m² -
1788144903 13.33° C 94% 1008.6 hPa 4.57 mm - 0 W/m² -
1788144603 13.33° C 94% 1008.5 hPa 4.57 mm - 0 W/m² -
1788144303 13.33° C 93% 1008.7 hPa 4.57 mm - 0 W/m² -
1788144003 13.33° C 93% 1008.4 hPa 3.56 mm - 0 W/m² -
1788143703 13.33° C 93% 1008.3 hPa 2.54 mm - 0 W/m² -
1788143403 13.33° C 93% 1008.3 hPa 2.29 mm - 0 W/m² -
1788143103 13.33° C 93% 1008.1 hPa 2.03 mm - 0 W/m² -
1788142803 13.33° C 93% 1008.3 hPa 2.03 mm - 0 W/m² -
1788142503 13.33° C 92% 1008.1 hPa 1.78 mm - 0 W/m² -
1788142203 13.33° C 92% 1008 hPa 1.52 mm - 0 W/m² -
1788141903 13.33° C 92% 1008.1 hPa 1.02 mm - 0 W/m² -
1788141603 13.33° C 92% 1008.1 hPa 0.76 mm - 0 W/m² -
1788141303 13.33° C 92% 1007.9 hPa 0.51 mm - 0 W/m² -
1788141003 13.33° C 92% 1007.9 hPa 0.51 mm - 0 W/m² -

* Rain latest hour (hover to see other rain measurements)
** Current wind speed in m/s (hover to see current wind gust speed)